Location: La Seigneurerie
(43.2390°N, 5.4148°E)
Time: 00:51:00
(UTC+00:00)

Daily predictions for brighter satellites

Satellite Brightness Start Highest point End
(mag) Time Altitude Azimuth Time Altitude Azimuth Time Altitude Azimuth
GEOS 3 Rocket 4.0 00:07:39 33° ESE 00:09:52 60° NE 00:15:04 10° NNW
Cosmos 1726 3.6 00:08:37 10° NNW 00:10:54 30° NW 00:10:54 30° NW
COSMOS 2455 2.8 00:11:40 60° SSE 00:12:32 69° ESE 00:18:32 10° NE
Cosmos 2058 Rocket 3.9 00:09:08 10° N 00:13:19 41° ENE 00:13:46 40° E
Meteor 1-29 4.3 00:11:19 10° NNE 00:13:32 36° NE 00:13:32 36° NE
Cosmos 2228 3.1 00:11:38 10° N 00:15:32 74° N 00:15:32 74° N
SL-14 R/B 4.4 00:18:39 37° ENE 00:18:39 37° ENE 00:21:48 10° NNE
Meteor 2-15 Rocket 4.4 00:13:33 10° NNW 00:19:42 74° W 00:20:55 57° SSW
Cosmos 1953 3.9 00:16:51 10° NNW 00:19:26 26° WNW 00:19:26 26° WNW
Cosmos 1340 Rocket 4.0 00:18:15 10° NNW 00:21:08 34° WNW 00:21:08 34° WNW
Okean 1-7 Rocket 3.9 00:22:03 56° E 00:22:04 56° E 00:26:29 10° NNE
Cosmos 921 Rocket 4.2 00:23:34 31° E 00:23:34 31° E 00:27:11 10° NE
Cosmos 1300 3.9 00:21:31 10° N 00:25:04 35° ENE 00:25:04 35° ENE
COSMOS 2487 3.8 00:25:09 10° NNW 00:27:18 35° NNW 00:27:18 35° NNW
Cosmos 1833 4.3 00:24:04 10° NW 00:29:32 52° WSW 00:29:45 52° WSW
Cosmos 1626 2.7 00:34:31 53° NE 00:34:31 53° NE 00:37:37 10° NNE
Cosmos 1656 Rocket 4.4 00:33:51 36° WSW 00:35:28 46° WNW 00:40:51 10° NNE
Cosmos 1606 Rocket 4.0 00:35:03 10° NNW 00:38:48 48° WNW 00:38:48 48° WNW
FALCON 9 R/B 3.2 00:38:25 44° SSW 00:39:47 48° SSE 00:56:57 10° E
MOZ.5/SAFIR/RUBIN 5/SL-8 4.4 00:44:15 36° ESE 00:45:41 50° ENE 00:50:10 10° N
Meteor 2-21 4.4 00:45:34 51° SSW 00:47:11 75° W 00:53:22 10° N
Cosmos 2297 Rocket 4.0 00:44:07 10° N 00:49:01 29° NE 00:53:53 10° ESE
SL-4 R/B 2.4 00:49:12 61° WSW 00:49:59 79° NNW 00:54:46 10° NE
Cosmos 1437 4.2 00:52:48 34° NE 00:52:48 34° NE 00:54:44 10° NNE
NOSS 3-2 (C) 4.4 00:45:06 10° NW 00:52:23 45° WSW 00:54:29 39° SSW
Cosmos 1674 4.3 00:53:21 24° WNW 00:53:21 24° WNW 00:56:02 10° NNW
ATLAS CENTAUR R/B 1.7 00:56:56 54° W 00:57:23 57° NW 01:01:31 10° NNE
SL-19 R/B 4.2 00:53:10 10° N 00:58:35 74° WNW 01:00:03 49° SW
SL-16 R/B 2.8 00:56:01 25° SE 00:59:44 63° ENE 01:05:49 10° N
NOSS 3-4 (A) 4.1 00:57:31 27° WSW 01:00:24 46° NW 01:06:31 10° NNE
NOSS 3-4 (C) 4.1 00:57:37 28° WSW 01:00:30 47° NW 01:06:38 10° NNE
Cosmos 1777 Rocket 3.9 00:55:38 10° NNW 01:00:52 74° WSW 01:01:53 56° S
FALCON 9 DEB 4.4 01:02:08 35° E 01:02:08 35° E 01:04:24 10° ENE
BREEZE-M R/B 3.0 01:01:07 66° SSE 01:01:10 66° SSE 01:04:26 10° ENE
Timation 2 Rocket 3.9 00:54:49 10° NNW 01:01:12 85° ENE 01:04:30 29° SSE
Spot 1 4.2 01:00:54 62° SW 01:01:15 65° WSW 01:06:03 10° NNW
Cosmos 1602 Rocket 4.1 01:01:58 42° SE 01:02:44 48° E 01:06:54 10° NNE
STARLINK-29 4.0 01:04:34 43° NE 01:04:34 43° NE 01:06:50 10° NE
Cosmos 1455 4.3 01:04:25 10° NNE 01:07:24 22° ENE 01:09:23 15° ESE
ATLAS 3B R/B 2.6 01:01:32 10° NW 01:08:20 74° WSW 01:12:43 25° SSE
CENTAUR R/B 3.6 01:04:35 10° NW 01:12:11 41° WSW 01:14:47 34° SSW
BREEZE-M DEB (TANK) 2.7 01:12:38 35° N 01:12:38 35° N 01:14:35 10° NE
Cosmos 1745 Rocket 3.9 01:12:45 41° S 01:15:04 88° W 01:21:14 10° N
Cosmos 1867 4.0 01:11:32 10° NW 01:16:37 41° WSW 01:16:44 41° WSW
RESURS DK-1 2.5 01:19:17 54° W 01:19:46 58° WNW 01:23:53 10° NNE
Meteor 1-24 Rocket 4.2 01:22:03 35° WSW 01:23:26 42° WNW 01:28:32 10° N
Cosmos 2227 Rocket 3.2 01:19:22 10° NNW 01:24:50 45° ENE 01:30:16 10° SE
Cosmos 1356 Rocket 3.3 01:21:01 10° NNW 01:25:11 77° W 01:25:49 61° SSW
Cosmos 1697 Rocket 4.2 01:23:11 17° SSE 01:26:14 27° ESE 01:30:55 10° NE
CZ-2D R/B 2.0 01:23:03 10° NNE 01:28:20 88° ESE 01:30:15 41° SSW
ATLAS 2AS CENTAUR R/B 4.0 01:23:17 15° WSW 01:29:27 39° NW 01:36:47 10° NNE
ADEOS II 3.2 01:26:07 10° NNE 01:30:58 36° E 01:34:07 19° SSE
IKONOS-2 4.4 01:29:56 51° S 01:30:59 80° W 01:35:17 10° NNW
CZ-4C R/B 3.5 01:30:46 55° SW 01:31:16 60° W 01:35:33 10° NNW
STARLINK-1228 3.0 01:32:29 10° NW 01:35:51 80° NE 01:39:11 10° ESE
STARLINK-1234 2.9 01:33:55 10° NW 01:41:18 - ESE 01:37:03 77° NE
Resurs 1-4 Rocket 2.1 01:32:48 10° N 01:38:05 75° WNW 01:40:11 37° SSW
STARLINK-1212 3.4 01:35:19 10° NW 01:38:23 57° NNE 01:41:27 10° ESE
USA 81 4.0 01:36:19 35° S 01:38:36 88° E 01:43:54 10° N
STARLINK-1105 3.4 01:35:47 10° NW 01:38:51 57° NNE 01:41:54 10° ESE
STARLINK-1209 3.3 01:36:10 10° NW 01:38:43 54° NW 01:38:43 54° NW
STARLINK-1247 3.4 01:36:41 10° NW 01:39:47 59° NNE 01:42:52 10° ESE
STARLINK-52 3.6 01:39:41 44° WNW 01:40:06 47° NNW 01:43:14 10° NE
STARLINK-1227 3.4 01:37:09 10° NW 01:40:13 59° NNE 01:43:16 10° ESE
STARLINK-1226 3.3 01:38:00 10° NW 01:41:05 60° NNE 01:44:10 10° ESE
Cosmos 1758 Rocket 3.9 01:39:23 33° SSE 01:41:06 59° E 01:45:23 10° NNE
STARLINK-1215 3.3 01:38:56 10° NW 01:42:02 62° NNE 01:45:08 10° ESE
ARIANE 5 R/B 4.1 01:38:41 10° NE 01:43:02 28° E 01:46:55 12° SSE
STARLINK-1217 3.2 01:40:42 10° NW 01:43:48 64° NNE 01:46:54 10° ESE
STARLINK-1229 3.2 01:41:37 10° NW 01:44:43 65° NNE 01:47:50 10° ESE
NPP 3.6 01:40:08 10° N 01:45:32 76° WNW 01:47:57 34° SSW
STARLINK-1270 3.2 01:42:29 10° NW 01:45:36 67° NE 01:48:42 10° ESE
STARLINK-1189 3.1 01:44:19 10° NW 01:47:26 69° NE 01:50:32 10° ESE
STARLINK-1188 3.0 01:45:12 10° NW 01:48:19 71° NNE 01:51:25 10° ESE
STARLINK-1235 2.7 01:45:52 10° NW 01:49:00 87° SSW 01:52:05 10° SE
STARLINK-1187 2.8 01:46:18 10° NW 01:49:25 82° NE 01:52:30 10° SE
Meteor 1-21 Rocket 4.1 01:46:48 32° SSW 01:49:32 86° W 01:55:14 10° N
Cosmos 1898 Rocket 4.0 01:44:52 10° NNW 01:50:11 61° ENE 01:55:26 10° SSE
STARLINK-1191 2.9 01:47:40 10° NW 01:50:46 75° NE 01:53:52 10° ESE
Cosmos 1656 3.7 01:48:20 32° SSW 01:51:06 79° ESE 01:56:46 10° NNE
Lacrosse 4 Rocket 4.1 01:48:08 10° N 01:51:30 21° NE 01:54:47 10° E
STARLINK-1221 2.9 01:48:32 10° NW 01:51:39 76° NE 01:54:45 10° ESE
STARLINK-1222 2.9 01:49:26 10° NW 01:52:33 77° NE 01:55:38 10° ESE
CZ-4C R/B 2.8 01:50:43 25° SSE 01:53:06 40° ESE 01:58:22 10° NE
STARLINK-1214 2.9 01:50:21 10° NW 01:53:27 79° NE 01:56:33 10° ESE
Cosmos 2084 3.9 01:52:18 33° WSW 01:54:01 55° NW 01:58:25 10° NNE
Cosmos 468 Rocket 4.0 01:52:22 31° S 01:54:50 76° ESE 01:59:58 10° NNE
SJ 16-02 1.4 01:51:16 10° NNW 01:55:42 78° ENE 01:59:17 16° SSE
Cosmos 1953 Rocket 4.3 01:54:38 20° SSE 01:57:26 49° E 02:01:44 10° NNE
COSMOS 2455 4.4 01:54:47 13° W 01:59:00 25° NW 02:03:56 10° NNE
Cosmos 2369 4.4 01:55:55 21° S 01:59:27 48° ESE 02:04:52 10° NE
Cosmos 1937 Rocket 4.2 01:55:17 10° NNW 02:00:26 54° ENE 02:05:35 10° SE
Meteor 2-10 Rocket 3.4 01:57:26 10° NNW 02:02:45 73° W 02:06:01 23° S
Cosmos 1709 Rocket 4.0 02:01:48 27° SSW 02:05:13 66° W 02:11:20 10° N
STARLINK-1199 4.4 02:04:52 10° NW 02:08:57 55° NNE 02:13:00 10° ESE
STARLINK-1210 4.2 02:09:49 10° NW 02:13:55 59° NNE 02:18:00 10° ESE
STARLINK-1320 3.0 02:14:52 38° WSW 02:15:52 66° NNW 02:18:58 10° NE
STARLINK-1322 3.0 02:15:11 37° WSW 02:16:12 65° NW 02:19:18 10° NE
STARLINK-1324 3.0 02:15:32 37° WSW 02:16:34 65° NNW 02:19:40 10° NE
STARLINK-1294 3.1 02:15:47 36° WSW 02:16:50 65° NNW 02:19:58 10° NE
STARLINK-1261 3.1 02:16:09 36° WSW 02:17:12 64° NNW 02:20:19 10° NE
STARLINK-1325 3.1 02:16:30 36° WSW 02:17:34 64° NNW 02:20:41 10° NE
Cosmos 2219 3.4 02:12:17 10° NW 02:17:44 49° WSW 02:22:14 15° S
STARLINK-1333 3.1 02:16:48 35° WSW 02:17:53 63° NNW 02:20:59 10° NE
STARLINK-1334 3.1 02:17:07 35° W 02:18:13 63° NNW 02:21:19 10° NE
Cosmos 1980 Rocket 3.3 02:13:41 12° S 02:18:24 38° ESE 02:23:34 10° NE
STARLINK-1326 3.1 02:17:28 34° W 02:18:34 62° NNW 02:21:40 10° NE
STARLINK-1323 3.1 02:17:47 34° W 02:18:54 62° NNW 02:22:00 10° NE
STARLINK-1219 4.1 02:14:47 10° NW 02:18:54 63° NNE 02:23:00 10° ESE
STARLINK-1338 3.2 02:17:39 32° WSW 02:19:06 73° NW 02:22:35 10° NE
STARLINK-1349 3.1 02:18:06 34° W 02:19:14 61° NNW 02:22:20 10° NE
STARLINK-1336 3.1 02:18:28 33° W 02:19:36 61° NNW 02:22:42 10° NE
STARLINK-1331 3.1 02:18:45 33° W 02:19:55 60° NNW 02:23:01 10° NE
STARLINK-1344 3.2 02:19:05 33° W 02:20:15 60° NNW 02:23:20 10° NE
STARLINK-1343 3.2 02:19:25 32° W 02:20:35 60° NNW 02:23:42 10° NE
STARLINK-1346 3.2 02:19:43 32° W 02:20:57 59° NNW 02:24:04 10° NE
Cosmos 1328 3.8 02:19:18 28° SSW 02:21:17 67° W 02:25:16 10° N
STARLINK-1328 3.2 02:20:05 32° W 02:21:17 59° NNW 02:24:23 10° NE
STARLINK-1354 3.2 02:20:22 31° W 02:21:36 58° NNW 02:24:41 10° NE
STARLINK-1347 3.2 02:20:44 31° W 02:21:58 58° NNW 02:25:03 10° NE
STARLINK-1357 3.2 02:21:01 31° W 02:22:17 58° NNW 02:25:22 10° NE
STARLINK-1335 3.2 02:21:22 30° W 02:22:38 57° NNW 02:25:43 10° NE
STARLINK-1327 3.2 02:21:41 30° W 02:22:57 57° NNW 02:26:02 10° NE
STARLINK-1371 3.3 02:21:31 29° WSW 02:23:08 68° NNW 02:26:38 10° NE
STARLINK-1340 3.3 02:22:01 30° W 02:23:19 56° NNW 02:26:24 10° NE
CRYOSAT 2 4.3 02:18:41 10° N 02:23:36 81° W 02:27:16 18° S
ERS-2 2.8 02:20:04 10° SSE 02:23:39 55° ENE 02:27:15 10° N
STARLINK-1356 3.3 02:22:21 29° W 02:23:39 56° NNW 02:26:44 10° NE
STARLINK-1211 3.9 02:19:44 10° NW 02:23:52 68° NNE 02:28:00 10° ESE
STARLINK-1345 3.3 02:22:41 29° W 02:24:00 56° NNW 02:27:05 10° NE
STARLINK-1355 3.3 02:22:59 29° W 02:24:19 55° NNW 02:27:24 10° NE
STARLINK-1321 3.3 02:23:18 28° W 02:24:39 55° NNW 02:27:43 10° NE
STARLINK-1358 3.3 02:23:39 28° W 02:25:01 54° NNW 02:28:06 10° NE
STARLINK-1341 3.4 02:23:29 27° WSW 02:25:11 65° NNW 02:28:41 10° NE
STARLINK-1332 3.3 02:23:57 28° W 02:25:20 54° NNW 02:28:23 10° NE
STARLINK-1348 3.3 02:24:18 27° W 02:25:41 54° NNW 02:28:45 10° NE
STARLINK-1330 3.3 02:24:36 27° W 02:26:00 53° NNW 02:29:04 10° NE
STARLINK-1363 3.4 02:24:56 27° W 02:26:20 53° NNW 02:29:25 10° NE
STARLINK-1337 3.4 02:25:15 27° W 02:26:41 53° NNW 02:29:45 10° NE
STARLINK-1342 3.4 02:25:35 26° W 02:27:01 52° NNW 02:30:05 10° NE
STARLINK-1374 3.4 02:25:26 26° WSW 02:27:14 63° NNW 02:30:44 10° NE
STARLINK-1364 3.4 02:25:55 26° W 02:27:22 52° NNW 02:30:26 10° NE
STARLINK-1376 3.4 02:26:15 26° W 02:27:43 52° NNW 02:30:47 10° NE
STARLINK-1360 3.4 02:26:30 26° W 02:27:59 51° NNW 02:31:03 10° NE
STARLINK-1361 3.4 02:26:56 25° W 02:28:25 51° NNW 02:31:29 10° NE
STARLINK-1367 3.4 02:27:10 25° W 02:28:42 51° NNW 02:31:48 10° NE
STARLINK-1245 3.8 02:24:44 10° NW 02:28:53 74° NNE 02:33:01 10° ESE
STARLINK-1366 3.5 02:27:33 25° W 02:29:04 50° NNW 02:32:07 10° NE
IRS-1C 4.1 02:23:55 10° NNE 02:29:17 82° WNW 02:33:25 17° SSW
STARLINK-1339 3.5 02:27:27 24° WSW 02:29:19 60° NNW 02:32:48 10° NE
SL-4 R/B 3.9 02:25:53 10° WNW 02:30:14 33° NNW 02:34:27 10° NE
STARLINK-1377 3.5 02:29:28 23° WSW 02:31:26 58° NNW 02:34:54 10° NE
Cosmos 2297 Rocket 2.5 02:27:52 10° NW 02:33:15 46° WSW 02:38:35 10° S
STARLINK-1353 3.6 02:31:17 22° WSW 02:33:18 56° NNW 02:36:44 10° NE
STARLINK-1233 3.7 02:29:41 10° NW 02:33:51 80° NE 02:38:00 10° ESE
STARLINK-1375 3.6 02:33:04 21° WSW 02:35:09 54° NNW 02:38:35 10° NE
Cosmos 540 Rocket 3.6 02:32:23 16° S 02:36:32 75° ESE 02:41:40 10° NNE
Cosmos 2082 3.6 02:31:22 10° NNW 02:37:04 85° WSW 02:42:41 10° SSE
ATLAS CENTAUR R/B 4.1 02:36:21 10° NW 02:37:05 10° NW 02:37:49 10° NNW
STARLINK-1350 3.7 02:35:22 20° WSW 02:37:33 52° NNW 02:40:59 10° NE
STARLINK-1204 3.6 02:34:41 10° NW 02:38:51 86° NE 02:43:00 10° SE
Cosmos 990 Rocket 4.2 02:34:01 10° NNW 02:39:04 48° WSW 02:44:04 10° S
STARLINK-1352 3.8 02:37:39 18° W 02:39:59 50° NNW 02:43:26 10° NE
Cosmos 1825 Rocket 4.3 02:38:21 20° SW 02:40:45 36° WNW 02:44:46 10° N
Cosmos 2278 3.9 02:36:08 14° SSW 02:40:56 72° ESE 02:46:36 10° NNE
STARLINK-1368 3.9 02:39:45 17° W 02:42:10 48° NNW 02:45:36 10° NE
Cosmos 1455 3.5 02:39:57 10° NW 02:42:57 23° W 02:44:15 19° WSW
Meteor 1-11 4.2 02:38:11 14° SSW 02:43:09 79° W 02:48:47 10° N
Meteor 1-28 Rocket 3.1 02:39:40 10° SSE 02:43:27 87° WSW 02:47:15 10° NNW
CZ-2D R/B 3.6 02:39:29 10° NNE 02:43:36 72° ESE 02:47:41 11° S
SL-16 R/B 3.8 02:41:06 16° SW 02:43:46 21° W 02:48:21 10° NW
STARLINK-1238 3.6 02:39:38 10° NW 02:43:48 88° SSW 02:47:56 10° SE
STARLINK-1369 3.9 02:41:37 17° W 02:44:06 46° NNW 02:47:29 10° NE
USA 234 3.9 02:38:56 10° ENE 02:45:11 46° SE 02:51:06 11° SSW
Cosmos 2074 Rocket 4.0 02:40:25 11° S 02:46:31 80° W 02:52:51 10° N
STARLINK-1372 4.0 02:43:57 15° W 02:46:34 45° NNW 02:49:59 10° NE
ATLAS CENTAUR R/B 2.8 02:43:44 10° WNW 02:47:14 48° SW 02:55:30 10° SSE
STARLINK-1201 3.5 02:44:38 10° NW 02:48:47 81° SW 02:52:56 10° SE
STARLINK-1378 4.1 02:46:05 15° W 02:48:48 43° NNW 02:52:12 10° NE
Cosmos 841 Rocket 3.5 02:44:27 15° SSW 02:48:50 80° WNW 02:54:06 10° NNE
Cosmos 2263 Rocket 4.3 02:43:53 10° N 02:48:51 31° NE 02:53:46 10° ESE
STARLINK-1329 4.1 02:46:35 14° W 02:49:20 43° NNW 02:52:44 10° NE
STARLINK-1365 4.1 02:47:17 14° W 02:50:03 41° NNW 02:53:27 10° NE
Cosmos 372 Rocket 4.4 02:45:40 10° NNW 02:50:47 66° ENE 02:55:54 10° SSE
STARLINK-1379 4.1 02:48:13 14° W 02:51:02 42° NNW 02:54:25 10° NE
GP-B 4.4 02:47:28 10° NNW 02:51:04 25° WNW 02:53:37 15° WSW
STARLINK-1362 4.1 02:48:47 14° W 02:51:37 42° NNW 02:55:01 10° NE
COBE Rocket 3.9 02:48:35 10° S 02:53:27 70° W 02:58:30 10° NNW
STARLINK-1206 3.5 02:49:37 10° WNW 02:53:46 74° SW 02:57:53 10° SE
STARLINK-1373 4.2 02:50:59 13° W 02:53:56 40° NNW 02:57:19 10° NE
Cosmos-2242 4.0 02:50:54 10° NNW 02:54:33 28° W 02:57:21 15° SW
Cosmos 1869 4.3 02:51:29 10° N 02:55:16 47° ENE 02:59:00 10° SSE
Cosmos 1400 Rocket 2.9 02:51:48 10° NNW 02:55:53 64° W 02:59:57 10° S
STARLINK-1390 4.2 02:52:59 12° W 02:56:00 39° NNW 02:59:21 10° NE
Cosmos 2221 3.1 02:52:24 10° N 02:56:42 60° E 03:00:59 10° SSE
ATLAS 3B R/B 4.3 02:54:53 10° WNW 02:57:58 13° WSW 02:59:50 12° WSW
Cosmos 2184 Rocket 4.0 02:51:55 10° SSW 02:58:04 68° W 03:04:14 10° N
STARLINK-1205 3.5 02:54:36 10° WNW 02:58:44 68° SW 03:02:50 10° SE
SL-08 R/B 3.7 02:54:33 10° S 02:59:01 41° W 03:03:26 10° NNW
CZ-4C R/B 3.0 02:55:50 10° SSE 02:59:24 90° ESE 03:03:04 10° NNW
STARLINK-1218 3.6 02:59:35 10° WNW 03:03:41 62° SW 03:07:46 10° SE
CZ-2D R/B 4.1 03:05:06 10° NNW 03:07:37 14° WNW 03:10:08 10° W
Cosmos 2227 Rocket 3.1 03:03:54 10° NW 03:08:38 28° WSW 03:13:19 10° SSW
STARLINK-1254 3.7 03:04:35 10° WNW 03:08:39 57° SW 03:12:42 10° SE
Cosmos 1697 Rocket 3.2 03:04:56 12° SW 03:09:55 46° WNW 03:15:23 10° NNE
ADEOS II 3.2 03:06:01 10° N 03:10:32 30° WNW 03:15:03 10° SW
Cosmos 2150 Rocket 4.2 03:07:37 10° NNW 03:12:50 79° ENE 03:17:58 10° SSE
STARLINK-1231 3.7 03:09:36 10° WNW 03:13:38 51° SW 03:17:39 10° SE
SL-16 R/B 3.7 03:10:49 10° SSE 03:15:50 33° ESE 03:20:52 10° NE
Cosmos 1315 Rocket 3.0 03:12:01 10° N 03:15:56 76° E 03:19:50 10° SSE
Cosmos 1610 Rocket 4.5 03:10:39 10° SSW 03:16:44 72° W 03:22:54 10° N
Resurs 1-4 Rocket 4.3 03:15:30 10° NW 03:16:59 11° NW 03:18:29 10° WNW
CZ-2C R/B 2.7 03:13:50 10° N 03:17:31 70° WNW 03:21:14 10° SSW
MSX 4.1 03:12:47 10° NNE 03:18:35 75° ESE 03:24:18 10° S
STARLINK-1232 3.8 03:14:37 10° WNW 03:18:36 47° SW 03:22:34 10° SSE
SAR-Lupe-4 4.0 03:16:01 10° SSE 03:19:34 69° ENE 03:23:09 10° N
H-2A R/B 2.4 03:15:45 10° S 03:19:52 45° W 03:24:05 10° NNW
ARIANE 5 R/B 3.3 03:17:34 10° N 03:22:10 36° WNW 03:26:42 10° SW
STARLINK-1208 4.0 03:19:36 10° WNW 03:23:32 43° SW 03:27:27 10° SSE
deb Chang Zheng 4 4.0 03:19:17 10° NNE 03:23:35 63° ESE 03:27:49 10° S
BREEZE-M R/B 4.0 03:21:03 10° WNW 03:23:46 24° NNW 03:25:54 10° NE
STARLINK-1271 4.1 03:24:38 10° WNW 03:28:31 39° SW 03:32:22 10° SSE
SL-24 DEB 4.3 03:24:10 10° N 03:28:47 66° W 03:33:19 10° SSW
BREEZE-M DEB (TANK) 1.9 03:26:56 10° W 03:28:51 32° SSW 03:31:25 10° SE
Cosmos 2154 Rocket 4.2 03:23:52 10° SSW 03:30:04 60° W 03:36:17 10° N
Lacrosse 4 Rocket 1.7 03:26:17 10° NW 03:30:25 45° WSW 03:34:24 10° S
STARLINK-1230 4.4 03:26:47 10° NW 03:30:54 57° NNE 03:34:58 10° ESE
Cosmos 2058 2.9 03:27:11 10° S 03:31:21 85° W 03:35:35 10° N
USA 129 2.8 03:30:21 10° NNW 03:31:51 20° WNW 03:33:01 10° WSW
STARLINK-1154 4.2 03:29:40 10° WNW 03:33:28 35° SW 03:37:15 10° SSE
Cosmos 2298 Rocket 4.1 03:29:13 10° NNW 03:34:27 62° WSW 03:39:40 10° S
SAR-Lupe-1 4.0 03:32:00 10° SSE 03:35:32 82° WSW 03:39:06 10° NNW
STARLINK-1243 4.3 03:31:46 10° NW 03:35:53 62° NNE 03:39:58 10° ESE
IDEFIX/ARIANE 42P 2.9 03:31:04 10° N 03:36:11 53° WNW 03:41:17 10° SSW
